{"data":{"norad_id":57515,"intl_designator":"2023-113W","name":"STARLINK-30081","alt_names":[],"object_type":"PAYLOAD","status":"ACTIVE","operator":null,"country":"US","launch_date":"2023-08-07","launch_site_code":"AFETR","launch_vehicle":null,"mission":null,"orbit_class":"UNKNOWN","rcs_meters":null,"size_class":null,"mass_kg":null,"dimensions":null,"purposes":["comms"],"wikipedia_slug":null,"has_3d_model":false,"image_url":null,"decayed_at":null,"tle_current":{"epoch":"2026-09-20T05:52:47.437536Z","epoch_age_seconds":150012,"freshness":"FRESH","line1":"1 57515U 23113W   26263.24499349 -.00000742  00000+0 -17434-4 0  9993","line2":"2 57515  43.0036 357.0147 0000927 270.8914  89.1832 15.27577427173433","mean_motion":15.27577427,"eccentricity":9.27e-5,"inclination_deg":43.0036,"raan_deg":357.0147,"arg_perigee_deg":270.8914,"mean_anomaly_deg":89.1832,"bstar":-1.7434e-5,"rev_number":17343,"period_min":94.26690749339,"perigee_km":482.42076787279,"apogee_km":483.69283320341,"semimajor_km":6861.1938005381,"source":"CELESTRAK","updated_at":"2026-09-21T09:00:33.636166Z"}}}